Probability
0 0 0 0 0 0 0 0 0 0 0 0 0 0 0 0 0 0 0 0 0 0 0 0 0 0 0 0 0 0 0 0 0 0 0 0 0 0 0 0 0 0 0
0 0 0 0 0 0 0 0 0 0 0 0 0 0 0 0 0 0 0 0 0 0 0 0 0 0 0 0 0 0 0 0 0 0 0 0 0 0 0 0 0 0 0
0 0 0 0 0 0 0 0 0 0 0 0 0 0 0 0 0 0 0 0 0 0 0 0 0 0 0 0 0 0 0 0 0 0 0 0 0 0 0 0 0 0 0
0 0 0 0 0 0 0 0 0 0 0 0 0 0 0 0 0 0 0 0 0 0 0 0 0 0 0 0 0 0 0 0 0 0 0 0 0 0 0 0 0 0 0
0 0 0 0 0 0 0 0 0 0 0 0 0 0 0 0 0 0 0 0 0 0 0 0 0 0 0 0 0 0 0 0 0 0 0 0 0 0 0 0 0 0 0
0 0 0 0 0 0 0 0 0 0 0 0 0 0 0 0 0 0 0 0 0 0 0 0 0 0 0 0 0 0 0 0 0 0 0 0 0 0 0 0 0 0 0
0 0 0 0 0 0 0 0 0 0 0 0 0 0 0 0 0 0 0 0 0 0 0 0 0 0 0 0 0 0 0 0 0 0 0 0 0 0 0 0 0 0 0
0 0 0 0 0 0 0 0 0 0 0 0 0 0 0 0 0 0 0 0 0 0 0 0 0 0 0 0 0 0 0 0 0 0 0 0 0 0 0 0 0 0 0
0 0 0 0 0 0 0 0 0 0 0 0 0 0 0 0 0 0 0 0 0 0 0 0 0 0 0 0 0 0 0 0 0 0 0 0 0 0 0 0 0 0 0
0 0 0 0 0 0 0 0 0 0 0 0 0 0 0 0 0 0 0 0 0 0 0 0 0 0 0 0 0 0 0 0 0 0 0 0 0 0 0 0 0 0 0
0 0 0 0 0 0 0 0 0 0 0 0 0 0 0 0 0 0 0 0 0 0 0 0 0 0 0 0 0 0 0 0 0 0 0 0 0 0 0 0 0 0 0
0 0 0 0 0 0 0 0 0 0 0 0 0 0 0 0 0 0 0 0 0 0 0 0 0 0 0 0 0 0 0 0 0 0 0 0 0 0 0 0 0 0 0
0 0 0 0 0 0 0 0 0 0 0 0 0 0 0 0 0 0 0 0 0 0 0 0 0 0 0 0 0 0 0 0 0 0 0 0 0 0 0 0 0 0 0
0 0 0 0 0 0 0 0 0 0 0 0 0 0 0 0 0 0 0 0 0 0 0 0 0 0 0 0 0 0 0 0 0 0 0 0 0 0 0 0 0 0 0
0 0 0 0 0 0 0 0 0 0 0 0 0 0 0 0 0 0 0 0 0 0 0 0 0 0 0 0 0 0 0 0 0 0 0 0 0 0 0 0 0 0 0
0 0 0 0 0 0 0 0 0 0 0 0 0 0 0 0 0 0 0 0 0 0 0 0 0 0 0 0 0 0 0 0 0 0 0 0 0 0 0 0 0 0 0
0 0 0 0 0 0 0 0 0 0 0 0 0 0 0 0 0 0 0 0 0 0 0 0 0 0 0 0 0 0 0 0 0 0 0 0 0 0 0 0 0 0 0
0 0 0 0 0 0 0 0 0 0 0 0 0 0 0 0 0 0 0 0 0 0 0 0 0 0 0 0 0 0 0 0 0 0 0 0 0 0 0 0 0 0 0
0 0 0 0 0 0 0 0 0 0 0 0 0 0 0 0 0 0 0 0 0 0 0 0 0 0 0 0 0 0 0 0 0 0 0 0 0 0 0 0 0 0 0
0 0 0 0 0 0 0 0 0 0 0 0 0 0 0 0 0 0 0 0 0 0 0 0 0 0 0 0 0 0 0 0 0 0 0 0 0 0 0 0 0 0 0
0 0 0 0 0 0 0 0 0 0 0 0 0 0 0 0 0 0 0 0 0 0 0 0 0 0 0 0 0 0 0 0 0 0 0 0 0 0 0 0 0 0 0
0 0 0 0 0 0 0 0 0 0 0 0 0 0 0 0 0 0 0 0 0 0 0 0 0 0 0 0 0 0 0 0 0 0 0 0 0 0 0 0 0 0 0
0 0 0 0 0 0 0 0 0 0 0 0 0 0 0 0 0 0 0 0 0 0 0 0 0 0 0 0 0 0 0 0 0 0 0 0 0 0 0 0 0 0 0
0 0 0 0 0 0 0 0 0 0 0 0 0 0 0 0 0 0 0 0 0 0 0 0 0 0 0 0 0 0 0 0 0 0 0 0 0 0 0 0 0 0 0
0 0 0 0 0 0 0 0 0 0 0 0 0 0 0 0 0 0 0 0 0 0 0 0 0 0 0 0 0 0 0 0 0 0 0 0 0 0 0 0 0 0 0
0 0 0 0 0 0 0 0 0 0 0 0 0 0 0 0 0 0 0 0 0 0 0 0 0 0 0 0 0 0 0 0 0 0 0 0 0 0 0 0 0 0 0
Wind_Speed
5 5 4 4 4 4 3 3 3 3 3 2 2 2 1 1 1 1 2 2 3 3 3 3 4 4 4 4 4 4 5 5 7 7 6 7 8 7 6 7 7 7 6
5 4 4 4 4 4 3 3 3 3 3 2 2 2 2 2 2 2 2 2 3 3 3 3 4 3 5 4 4 5 5 6 7 9 7 7 8 8 7 8 7 6 7
4 4 4 4 4 4 3 3 3 3 3 2 2 2 2 2 2 2 3 3 3 4 4 4 4 5 5 5 5 6 5 5 6 7 8 7 7 6 7 7 8 7 7
4 4 4 4 4 3 3 3 3 3 3 2 2 2 2 2 2 3 3 3 4 4 4 5 5 5 6 6 6 6 6 6 6 7 7 7 6 7 7 6 6 6 6
4 4 4 3 3 3 3 3 3 2 2 2 2 2 2 2 2 3 3 4 4 4 5 5 5 6 7 7 6 6 6 6 6 7 7 7 6 6 7 6 7 7 7
4 4 3 3 3 3 3 3 2 2 2 2 2 2 2 2 3 4 5 4 4 5 5 5 5 6 7 9 10 10 10 8 8 7 7 8 9 8 8 7 7 8 7
4 3 3 3 3 3 3 3 2 2 2 2 2 2 2 2 4 5 6 5 5 5 5 5 4 5 7 6 8 9 10 11 12 10 10 10 10 9 9 10 9 9 9
3 3 3 3 3 3 3 2 2 2 2 2 2 2 2 3 4 5 6 5 5 5 6 6 6 6 6 7 7 7 8 8 9 8 9 10 9 9 9 9 10 10 10
3 2 2 3 3 3 3 2 2 2 2 1 2 2 2 3 4 5 6 4 4 6 6 6 6 7 8 10 8 8 8 8 8 11 12 13 14 14 11 8 8 8 9
2 2 2 2 3 3 2 2 2 2 2 1 2 2 3 3 4 5 6 4 4 5 5 5 7 8 10 11 8 7 8 8 7 8 9 10 10 10 11 9 7 8 8
1 1 1 1 2 2 2 1 1 1 1 2 2 2 3 3 4 5 7 4 4 5 5 4 4 8 10 11 10 7 9 9 7 7 7 7 7 7 7 7 7 7 8
2 2 1 1 1 1 1 1 1 1 2 2 2 2 2 3 4 5 7 7 7 5 5 5 5 8 10 11 9 9 11 10 6 6 6 6 6 6 6 7 8 8 9
1 1 1 1 1 1 1 2 2 2 2 2 2 2 3 3 4 6 7 8 8 6 5 8 9 10 10 8 9 11 9 6 6 6 7 7 6 7 7 7 8 8 10
1 1 0 0 1 1 1 2 2 2 2 2 3 3 3 3 3 4 4 5 6 6 6 7 9 9 8 8 8 6 5 5 6 6 7 7 6 6 7 6 7 6 7
1 0 0 1 1 1 1 2 2 3 3 3 3 3 4 4 5 8 6 5 4 5 5 4 4 4 5 4 5 5 5 5 6 6 6 6 6 6 6 6 6 7 7
0 0 0 1 1 1 2 2 3 4 5 6 6 6 5 7 9 10 10 9 9 8 6 4 4 5 5 5 5 5 5 5 6 6 6 6 6 7 7 7 7 7 8
0 1 1 1 1 2 2 2 3 3 4 6 7 8 8 9 10 10 10 10 9 7 5 4 5 5 5 5 5 6 6 6 6 6 6 6 7 7 7 7 7 7 8
1 1 1 1 2 2 2 3 3 3 3 3 5 7 9 9 10 9 9 8 5 4 4 5 5 5 5 6 6 6 6 6 6 6 7 7 7 7 7 7 7 8 8
1 1 1 2 2 2 3 3 3 4 4 4 4 5 7 8 9 9 8 5 5 5 5 5 5 5 6 6 6 6 7 7 7 7 7 7 7 7 7 7 8 10 10
1 2 3 2 2 2 3 3 3 4 4 4 4 4 4 5 4 5 4 4 5 5 5 6 6 6 6 6 6 6 7 7 7 7 7 7 7 7 8 9 8 8 8
2 2 3 3 3 3 3 3 4 4 4 4 4 5 7 5 5 6 5 5 5 6 6 6 6 6 6 6 6 7 8 7 7 7 7 7 7 7 7 8 8 8 8
2 2 2 3 3 3 4 4 4 4 5 5 5 6 9 6 5 5 5 6 6 6 6 6 6 6 6 6 7 7 8 8 8 8 8 7 7 8 8 8 8 8 8
2 3 3 3 3 5 4 4 4 4 5 5 5 5 5 5 6 6 6 6 6 6 6 6 7 7 7 6 7 7 8 8 8 8 8 8 8 8 8 8 9 9 9
2 3 3 3 3 4 4 4 4 5 5 5 6 6 6 6 6 7 7 7 7 7 7 7 7 9 11 9 7 7 8 9 9 8 10 9 9 8 8 8 9 10 9
3 3 4 4 4 4 4 5 5 5 6 6 6 6 7 7 7 7 7 7 8 8 9 8 7 8 11 12 11 10 12 15 14 10 9 8 10 10 9 10 9 9 9
3 4 4 4 4 5 5 5 6 6 6 6 6 7 7 7 7 7 7 7 7 8 8 8 9 11 12 11 12 14 16 18 17 17 11 8 9 8 9 8 10 9 9
Wind_Direction
159 159 163 165 165 165 167 171 169 168 169 176 187 195 212 232 246 254 263 270 273 278 278 278 285 287 279 273 271 266 265 267 273 283 285 292 290 287 289 288 286 286 285
156 156 161 162 161 162 165 170 171 171 175 182 190 197 209 231 244 249 258 263 269 274 278 281 285 288 285 278 271 269 269 272 275 283 289 290 288 287 285 286 287 284 283
153 155 160 163 164 165 166 170 173 175 179 182 190 202 219 237 247 256 261 265 269 273 277 281 286 286 284 284 282 276 274 275 276 280 286 290 286 287 286 283 283 284 285
155 161 166 168 170 168 167 170 172 178 184 191 205 219 233 242 247 254 263 266 270 274 276 278 281 280 282 283 283 282 281 279 277 277 280 284 285 289 287 284 285 284 286
160 166 169 167 166 165 168 167 169 178 188 195 210 227 238 242 248 263 270 274 276 277 277 277 277 282 286 284 282 283 283 279 279 279 283 284 284 285 286 286 283 285 283
164 168 167 165 164 167 168 165 168 176 186 196 211 225 242 252 267 275 282 279 279 279 281 281 280 275 278 281 283 285 284 282 282 282 284 283 285 288 293 288 284 284 283
164 167 169 170 168 169 168 169 174 183 194 207 222 235 254 270 273 274 277 280 277 277 279 282 283 283 283 282 282 281 279 278 278 278 279 281 284 286 287 287 285 283 285
158 164 169 170 173 171 172 180 184 193 205 217 232 246 262 276 282 280 278 276 274 275 277 277 280 282 282 286 285 283 282 280 279 276 278 283 286 286 281 283 285 287 287
160 167 173 174 175 177 185 194 194 202 214 229 244 255 268 280 282 285 283 278 274 277 278 278 280 282 287 288 287 286 287 287 286 283 284 286 289 290 289 283 281 281 284
171 172 173 180 184 188 200 208 209 214 223 238 253 263 270 279 286 288 286 276 277 281 281 279 275 281 289 290 287 287 287 291 293 292 287 286 285 285 284 277 276 275 282
144 141 149 167 185 191 200 211 209 214 229 243 256 270 275 280 286 289 290 284 282 282 283 285 285 289 290 293 293 288 290 298 296 293 291 289 288 284 279 277 275 272 273
129 134 137 151 176 182 188 203 208 210 227 244 262 279 282 282 288 291 292 291 294 286 282 284 288 294 294 295 294 294 297 297 291 289 287 287 288 288 285 283 280 276 271
124 130 130 143 177 200 208 211 213 221 236 253 265 277 287 289 289 292 293 293 293 290 285 286 289 291 292 289 289 294 295 288 285 284 284 286 288 290 289 284 280 277 275
122 122 139 183 219 229 236 234 236 236 241 252 265 274 283 288 290 294 292 290 287 286 285 287 289 289 286 288 291 288 283 283 284 283 287 288 289 288 285 284 283 283 282
115 134 199 230 247 256 259 261 258 255 257 258 264 273 280 284 293 301 304 299 298 294 293 283 280 283 283 283 285 286 286 284 280 281 283 286 286 286 285 287 284 282 278
120 191 262 264 268 269 269 278 276 272 274 270 275 281 282 284 296 297 296 296 297 298 289 278 279 280 283 286 287 287 284 283 283 282 280 281 283 285 286 285 282 279 278
278 278 272 273 272 273 276 278 285 285 279 279 284 289 289 294 296 299 300 298 296 295 283 281 281 282 282 284 285 285 285 285 283 279 277 278 280 281 282 283 282 280 279
292 286 286 279 279 277 276 278 279 282 286 286 291 294 297 298 300 301 301 297 286 285 279 279 279 280 280 280 281 282 283 283 279 277 276 276 276 277 279 280 279 280 282
295 295 296 292 287 283 282 281 278 276 278 286 291 296 301 302 301 300 300 286 283 281 279 277 277 277 277 278 279 280 280 279 278 277 276 276 275 274 275 276 278 281 280
286 297 303 295 289 287 284 282 281 279 280 281 284 292 300 299 292 291 285 281 281 281 280 278 277 275 275 276 278 278 278 277 277 274 274 275 274 273 273 275 276 278 277
298 298 303 297 290 285 281 281 281 281 281 284 286 288 296 290 284 284 282 279 278 280 282 283 282 280 275 274 275 275 275 275 274 274 274 274 274 273 272 273 274 273 276
293 294 296 294 292 286 284 280 279 278 280 283 288 292 295 288 282 280 280 280 279 278 280 280 279 278 277 276 275 274 273 273 273 272 272 273 272 270 271 271 272 274 276
286 292 294 290 289 292 293 287 283 281 282 284 286 287 287 284 283 281 282 283 282 281 280 278 278 277 278 275 272 271 272 273 273 273 274 273 271 270 270 270 271 274 275
278 283 286 286 284 282 286 289 286 284 284 284 283 283 284 284 284 284 284 284 284 283 281 278 275 278 281 282 279 274 270 273 274 270 268 268 270 271 270 269 270 271 272
273 275 276 276 278 279 281 283 283 283 283 283 283 283 283 283 284 285 286 286 287 285 286 283 279 280 280 280 280 281 281 281 279 275 265 262 263 264 268 269 269 270 270
275 274 272 272 272 274 276 279 281 283 283 283 282 282 282 283 283 284 286 286 288 287 286 283 282 284 285 283 282 283 285 287 286 283 273 264 264 265 266 267 269 268 270